Weather History for Andover, NJ

Change the Weather History Date:

Thursday, February 6, 2014

  Actual Average (KFWN) Record (KFWN)
Temperature  
Mean Temperature 22 °F -  
Max Temperature 28 °F 32 °F 66 °F (1991)
Min Temperature 15 °F 12 °F -9 °F (1978)
Degree Days  
Heating Degree Days 44    
Moisture  
Dew Point 12 °F    
Average Humidity 71    
Maximum Humidity 92    
Minimum Humidity 49    
Precipitation  
Precipitation 0.00 in - - ()
Sea Level Pressure  
Sea Level Pressure 30.26 in    
Wind  
Wind Speed 6 mph (North)    
Max Wind Speed 13 mph    
Max Gust Speed 22 mph    
Averages and records for this station are not official NWS values.
T = Trace of Precipitation, MM = Missing Value Source: NWS Daily Summary

Daily Weather History Graph

Daily Weather History Graph

Search for Another Location

Airport:

Trip Planner

Search our weather history database for the weather conditions in past years. The results will help you decide how hot, cold, wet, or windy it might be!

Date:

Astronomy

Feb. 06, 2014 Rise Set
Actual Time 7:04 AM EST 5:22 PM EST
Civil Twilight 6:35 AM EST 5:51 PM EST
Nautical Twilight 6:02 AM EST 6:23 PM EST
Astronomical Twilight 5:30 AM EST 6:55 PM EST
Moon 10:52 AM EST (2/6) 12:17 AM EST (2/6)
Length of Visible Light 11h 15m
Length of Day
10h 17m
Waxing Crescent, 49% of the Moon is Illuminated
Feb 6
Waxing Crescent
Feb 6
First Quarter
Feb 14
Full
Feb 22
Last Quarter
Mar 1
New

Hourly Weather History & Observations

Time (EST) Temp. Windchill Dew Point Humidity Pressure Visibility Wind Dir Wind Speed Gust Speed Precip Events Conditions
12:54 AM 24.1 °F 13.7 °F 18.0 °F 77% 30.08 in - North 10.4 mph 17.3 mph N/A   Unknown
1:54 AM 21.9 °F 12.5 °F 14.0 °F 72% 30.13 in - North 8.1 mph 21.9 mph N/A   Unknown
2:54 AM 19.9 °F 7.3 °F 12.9 °F 74% 30.14 in - North 12.7 mph 20.7 mph N/A   Unknown
3:54 AM 18.0 °F 7.7 °F 10.9 °F 74% 30.18 in - NNW 8.1 mph - N/A   Unknown
4:54 AM 17.1 °F 7.6 °F 10.0 °F 74% 30.22 in - North 6.9 mph - N/A   Unknown
5:54 AM 16.0 °F 6.3 °F 8.1 °F 71% 30.25 in - North 6.9 mph - N/A   Unknown
6:54 AM 15.1 °F 5.2 °F 8.1 °F 74% 30.27 in - North 6.9 mph - N/A   Unknown
7:54 AM 15.1 °F 9.4 °F 7.0 °F 70% 30.31 in - Variable 3.5 mph - N/A   Unknown
8:54 AM 18.0 °F 8.7 °F 9.0 °F 68% 30.33 in - North 6.9 mph - N/A   Unknown
9:54 AM 18.0 °F 6.9 °F 8.1 °F 65% 30.32 in - NNW 9.2 mph - N/A   Unknown
10:54 AM 19.9 °F 11.1 °F 9.0 °F 62% 30.32 in - Variable 6.9 mph - N/A   Unknown
11:54 AM 23.0 °F - 10.9 °F 60% 30.31 in - Calm Calm - N/A   Unknown
12:54 PM 25.0 °F 19.3 °F 10.9 °F 55% 30.28 in - Variable 4.6 mph - N/A   Unknown
1:54 PM 28.0 °F 22.8 °F 12.0 °F 51% 30.27 in - North 4.6 mph - N/A   Unknown
2:54 PM 28.0 °F 24.2 °F 12.0 °F 51% 30.26 in - Variable 3.5 mph - N/A   Unknown
3:54 PM 28.0 °F - 10.9 °F 49% 30.27 in - Calm Calm - N/A   Unknown
4:54 PM 27.0 °F - 12.9 °F 56% 30.26 in - Calm Calm - N/A   Unknown
5:54 PM 24.1 °F - 16.0 °F 71% 30.28 in - Calm Calm - N/A   Unknown
6:54 PM 19.9 °F - 16.0 °F 85% 30.27 in - Calm Calm - N/A   Unknown
7:54 PM 17.1 °F - 15.1 °F 92% 30.27 in - Calm Calm - N/A   Unknown
8:54 PM 17.1 °F - 14.0 °F 88% 30.28 in - Calm Calm - N/A   Unknown
9:54 PM 15.1 °F - 12.9 °F 91% 30.29 in - Calm Calm - N/A   Unknown
10:54 PM 16.0 °F 10.4 °F 14.0 °F 92% 30.30 in - South 3.5 mph - N/A   Unknown
11:54 PM 15.1 °F - 12.9 °F 91% 30.29 in - Calm Calm - N/A   Unknown